This demonstration page uses our WeatherBlox Daily Observations layout. Learn more.

Left ArrowRight Arrow

Hourly Observations for January 22, 2015

Temp ( °F °C ) Dew Point ( °F °C ) Humidity (%) Winds ( mph kmh ) Pressure ( in mb ) Visibility ( mi km ) Precip ( " mm )
12:51 am 00:51 Clear 45 7.2 32 undefined 61 61 WNW 10 17 29.94 1014 10 16 N/A
1:51 am 01:51 Clear 43 6.1 32 undefined 65 65 NNW 8 13 29.96 1015 10 16 N/A
2:51 am 02:51 Clear 42 5.6 30 -1.1 62 62 NW 10 17 29.97 1015 10 16 N/A
3:51 am 03:51 Clear 40 4.4 28 -2.2 63 63 NW 9 15 29.98 1015 10 16 N/A
4:51 am 04:51 Clear 39 3.9 26 -3.3 60 60 W 10 17 30.00 1016 10 16 N/A
5:51 am 05:51 Clear 38 3.3 23 -5 55 55 WNW 9 15 30.01 1016 10 16 N/A
6:51 am 06:51 Partly Cloudy 37 2.8 20 -6.7 50 50 NW 10 17 30.04 1017 10 16 N/A
7:51 am 07:51 Mostly Sunny 38 3.3 18 -7.8 44 44 NNW 8 13 30.08 1019 10 16 N/A
8:51 am 08:51 Mostly Cloudy 39 3.9 15 -9.4 38 38 W 12 19 30.09 1019 10 16 N/A
9:51 am 09:51 Cloudy 45 7.2 13 -10.6 27 27 NW 7 11 30.11 1020 10 16 N/A
10:51 am 10:51 Sunny 50 10 10 -12.2 20 20 W 7 11 30.12 1020 10 16 N/A
11:51 am 11:51 Sunny 52 11.1 13 -10.6 21 21 N N/A 30.12 1020 10 16 N/A
12:51 pm 12:51 Sunny 50 10 31 -0.6 48 48 S 20 31 30.14 1021 10 16 N/A
1:51 pm 13:51 Partly Cloudy 50 10 31 -0.6 48 48 SSE 15 24 30.14 1021 10 16 N/A
2:51 pm 14:51 Mostly Sunny 49 9.4 31 -0.6 50 50 S 22 35 30.17 1022 10 16 N/A
3:51 pm 15:51 Mostly Cloudy 48 8.9 30 -1.1 50 50 S 18 30 30.21 1023 10 16 N/A
4:51 pm 16:51 Sunny 46 7.8 30 -1.1 54 54 S 15 24 30.23 1024 10 16 N/A
5:51 pm 17:51 Clear 43 6.1 31 -0.6 63 63 SSE 10 17 30.26 1025 10 16 N/A
6:51 pm 18:51 Clear 41 5 30 -1.1 65 65 SSE 10 17 30.30 1026 10 16 N/A
7:51 pm 19:51 Clear 39 3.9 29 -1.7 67 67 SSE 6 9 30.33 1027 10 16 N/A
8:51 pm 20:51 Clear 38 3.3 29 -1.7 70 70 SE 5 7 30.33 1027 10 16 N/A
9:51 pm 21:51 Clear 35 1.7 28 -2.2 76 76 N N/A 30.34 1027 10 16 N/A
10:51 pm 22:51 Clear 34 1.1 28 -2.2 79 79 ESE 6 9 30.35 1028 10 16 N/A
11:51 pm 23:51 Clear 32 undefined 27 -2.8 82 82 E 6 9 30.35 1028 10 16 N/A

Powered by AerisWeather